Location: Forst
(46.9333°N, 15.4333°E)
Time: 23:27:35
(UTC+00:00)

Envisat - Pass Details

Date: 05 October 2021
Orbit: 764 x 766 km, 98.2° (Epoch: 20 October)

Event Time Altitude Azimuth Distance (km) Brightness Sun altitude
Rises 02:45:17 0° 30° (NNE) 3,241 7.0 -23.9°
Reaches altitude 10° 02:48:42 10° 55° (NE) 2,308 6.5 -23.3°
Maximum altitude 02:51:28 15° 88° (E) 2,001 6.1 -22.9°
Drops below altitude 10° 02:54:13 10° 121° (ESE) 2,299 6.0 -22.4°
Sets 02:57:36 0° 145° (SE) 3,218 6.5 -21.9°
